Overview Statistics Trail Chart Weather Telemetry Raw packets
 

This is the latest recevied weather packets stored in our database for station/object KO4LCK. If no packets are shown the sender has not sent any weather packets the latest 10 day(s).

<< 51 52 53 54 55 56 57 >>
Time Temp. Humidity Pressure Rain* Wind** Luminosity Snow
1788302514 34.44° C 45% 1018.7 hPa 0 mm - 51 W/m² -
1788302210 35° C 44% 1018.4 hPa 0 mm - 53 W/m² -
1788301905 35° C 44% 1018.4 hPa 0 mm - 119 W/m² -
1788301601 35° C 43% 1018.5 hPa 0 mm - 151 W/m² -
1788301297 35° C 42% 1018.5 hPa 0 mm - 163 W/m² -
1788300993 35.56° C 43% 1018.5 hPa 0 mm - 181 W/m² -
1788300689 35° C 44% 1018.5 hPa 0 mm - 197 W/m² -
1788300387 35° C 44% 1018.4 hPa 0 mm - 211 W/m² -
1788300087 35.56° C 44% 1018.5 hPa 0 mm - 224 W/m² -
1788299785 35° C 46% 1018.3 hPa 0 mm - 240 W/m² -
1788299480 35° C 43% 1018.4 hPa 0 mm - 256 W/m² -
1788299179 35.56° C 43% 1018.4 hPa 0 mm - 276 W/m² -
1788298873 35.56° C 42% 1018.2 hPa 0 mm - 294 W/m² -
1788298573 36.11° C 42% 1018.5 hPa 0 mm - 309 W/m² -
1788298267 36.67° C 40% 1018.4 hPa 0 mm - 330 W/m² -
1788297967 37.22° C 38% 1018.5 hPa 0 mm - 350 W/m² -
1788297678 36.67° C 41% 1018.3 hPa 0 mm - 359 W/m² -
1788297358 36.67° C 39% 1018.5 hPa 0 mm - 380 W/m² -
1788297055 36.11° C 41% 1018.5 hPa 0 mm - 392 W/m² -
1788296750 36.11° C 42% 1018.6 hPa 0 mm - 408 W/m² -
1788296447 35.56° C 42% 1018.6 hPa 0 mm - 424 W/m² -
1788296141 35.56° C 41% 1018.7 hPa 0 mm - 434 W/m² -
1788295835 35.56° C 40% 1018.5 hPa 0 mm - 460 W/m² -
1788295533 35.56° C 41% 1018.6 hPa 0 mm - 478 W/m² -
1788295227 35.56° C 41% 1018.8 hPa 0 mm - 505 W/m² -

* Rain latest hour (hover to see other rain measurements)
** Current wind speed in m/s (hover to see current wind gust speed)